Baker City Municipal Airport Baker City US
ICAO: KBKE
IATA: BKE
Category: Medium
Scheduled Services: No

Elevation: 3373 ft
TransAlt. 18000 ft.

Airport Communications:
ASOS:134.275
SALT LAKE CITY CNTR:128.05
CTAF/UNICOM:123

KBKE Zoom In..

If you have problems with the map follow the link
https://www.worldairports.se/pages/airport.php?
ICAO=KBKE

Runways:

(A) RW 08 length 3670 ft width 140 ft
---- / hdg 81

(B) RW 13 length 5085 ft width 100 ft
---- / hdg 126

(C) RW 17 length 4359 ft width 75 ft
---- / hdg 165

(D) RW 26 length 3670 ft width 140 ft
---- / hdg 261

(E) RW 31 length 5085 ft width 100 ft
---- / hdg 306

(F) RW 35 length 4359 ft width 75 ft
---- / hdg 345

Location; KBKE
Day. 22 / Time. 15.53 Zulu
* Altimeter: 30.04
* Temperature: -08° c. -17.6°f.
* Wind from: 000° Speed 00 kn.
Dewpoint: -12° c.
Visibility: 10 Statute Miles.
Clouds: Scattered 11000 ft.

KBKE 221553Z AUTO 00000KT 10SM SCT110 M08/M12 A3004 RMK AO2 SLP209 T10831117


Wind - Calm.

 
 
jpsmedia.com for Web Design worldairports.se 2019   terms of use